DW3216 Weather Reports


Display with metric or nautical units.
time (UTC)temp
F
wind
direction
speed
MPH
gust
MPH
rain 1hr
in
rain 24hr
in
rain mn
in
humidity
%
barometer
mb
20171123234121 41 41 1.0 5.0 0.00 0.00 0.00 50 1016.5
20171123233607 41 84 1.0 3.0 0.00 0.00 0.00 50 1016.6
20171123233106 41 40 1.0 3.0 0.00 0.00 0.00 50 1016.7
20171123232607 41 54 1.0 3.0 0.00 0.00 0.00 50 1016.7
20171123232110 41 42 1.0 2.0 0.00 0.00 0.00 50 1016.6
20171123231607 41 41 1.0 2.0 0.00 0.00 0.00 50 1016.6
20171123231107 41 58 1.0 3.0 0.00 0.00 0.00 50 1016.6
20171123230607 41 62 1.0 2.0 0.00 0.00 0.00 50 1016.6
20171123230124 41 47 0.0 2.0 0.00 0.00 0.00 50 1016.6
20171123225606 41 17 1.0 3.0 0.00 0.00 0.00 50 1016.5
20171123225108 41 49 1.0 2.0 0.00 0.00 0.00 50 1016.5
20171123224607 41 49 1.0 2.0 0.00 0.00 0.00 52 1016.5
20171123224116 41 49 1.0 3.0 0.00 0.00 0.00 50 1016.6
20171123223606 41 54 0.0 2.0 0.00 0.00 0.00 49 1016.6
20171123223107 41 54 1.0 2.0 0.00 0.00 0.00 49 1016.6
20171123222617 41 54 0.0 2.0 0.00 0.00 0.00 49 1016.6
20171123222107 41 52 1.0 2.0 0.00 0.00 0.00 48 1016.5
20171123221607 41 52 0.0 1.0 0.00 0.00 0.00 48 1016.5
20171123221111 41 52 0.0 1.0 0.00 0.00 0.00 48 1016.5
20171123220610 42 52 0.0 1.0 0.00 0.00 0.00 48 1016.4
20171123220107 42 52 0.0 1.0 0.00 0.00 0.00 48 1016.5
20171123215607 42 52 0.0 0.0 0.00 0.00 0.00 47 1016.4
20171123215107 42 52 0.0 0.0 0.00 0.00 0.00 47 1016.4
20171123214611 42 52 0.0 0.0 0.00 0.00 0.00 46 1016.4
20171123214107 42 52 0.0 1.0 0.00 0.00 0.00 46 1016.3
20171123213606 42 50 0.0 2.0 0.00 0.00 0.00 45 1016.3
20171123213107 43 50 2.0 3.0 0.00 0.00 0.00 45 1016.3
20171123212609 43 53 1.0 3.0 0.00 0.00 0.00 45 1016.3
20171123212107 43 298 1.0 1.0 0.00 0.00 0.00 45 1016.3
20171123211607 43 298 0.0 2.0 0.00 0.00 0.00 45 1016.3
20171123211110 43 298 0.0 1.0 0.00 0.00 0.00 44 1016.2
20171123210608 44 298 0.0 2.0 0.00 0.00 0.00 44 1016.3
20171123210109 44 296 0.0 2.0 0.00 0.00 0.00 44 1016.4
20171123205609 44 287 1.0 2.0 0.00 0.00 0.00 43 1016.4
20171123205118 45 56 0.0 2.0 0.00 0.00 0.00 43 1016.5
20171123204607 45 54 1.0 3.0 0.00 0.00 0.00 43 1016.4
20171123204109 45 67 1.0 2.0 0.00 0.00 0.00 42 1016.4
20171123203633 45 60 1.0 2.0 0.00 0.00 0.00 42 1016.4
20171123203107 45 60 1.0 2.0 0.00 0.00 0.00 42 1016.5
20171123202606 45 61 1.0 2.0 0.00 0.00 0.00 43 1016.5
20171123202106 45 60 1.0 3.0 0.00 0.00 0.00 42 1016.5
20171123201621 45 64 1.0 2.0 0.00 0.00 0.00 42 1016.5
20171123201106 45 63 1.0 3.0 0.00 0.00 0.00 42 1016.6
20171123200606 45 41 0.0 3.0 0.00 0.00 0.00 42 1016.5
20171123200200 45 59 1.0 3.0 0.00 0.00 0.00 42 1016.6
20171123195612 45 95 0.0 3.0 0.00 0.00 0.00 42 1016.6
20171123195108 45 88 0.0 3.0 0.00 0.00 0.00 42 1016.5
20171123194609 45 96 1.0 3.0 0.00 0.00 0.00 42 1016.5
20171123194113 44 214 0.0 0.0 0.00 0.00 0.00 43 1016.5
20171123193616 44 214 0.0 3.0 0.00 0.00 0.00 43 1016.6
20171123193109 44 236 1.0 5.0 0.00 0.00 0.00 43 1016.7
20171123192610 44 232 2.0 3.0 0.00 0.00 0.00 44 1016.7
20171123192110 44 259 1.0 2.0 0.00 0.00 0.00 44 1016.7
20171123191609 44 270 1.0 2.0 0.00 0.00 0.00 43 1016.8
20171123191107 44 281 1.0 2.0 0.00 0.00 0.00 44 1016.7
20171123190611 43 233 1.0 3.0 0.00 0.00 0.00 44 1016.7
20171123190115 43 232 1.0 3.0 0.00 0.00 0.00 45 1016.7
20171123185607 43 233 0.0 3.0 0.00 0.00 0.00 45 1016.8
20171123185108 43 236 1.0 3.0 0.00 0.00 0.00 45 1016.9
20171123184607 44 54 1.0 3.0 0.00 0.00 0.00 44 1017.1
20171123184107 44 38 2.0 3.0 0.00 0.00 0.00 44 1017.2
20171123183606 44 30 1.0 3.0 0.00 0.00 0.00 44 1017.4
20171123183111 44 352 2.0 5.0 0.00 0.00 0.00 44 1017.4
20171123182609 44 49 1.0 3.0 0.00 0.00 0.00 44 1017.5
20171123182107 44 15 1.0 5.0 0.00 0.00 0.00 44 1017.5
20171123181607 44 336 1.0 3.0 0.00 0.00 0.00 44 1017.6
20171123181110 44 218 1.0 3.0 0.00 0.00 0.00 43 1017.6
20171123180629 44 80 1.0 3.0 0.00 0.00 0.00 44 1017.7
20171123180110 44 108 1.0 3.0 0.00 0.00 0.00 45 1017.8
20171123175609 44 56 1.0 3.0 0.00 0.00 0.00 45 1017.8
20171123175116 44 131 1.0 3.0 0.00 0.00 0.00 45 1017.9
20171123174610 44 67 1.0 3.0 0.00 0.00 0.00 46 1017.9
20171123174106 43 50 2.0 5.0 0.00 0.00 0.00 46 1018.0
20171123173607 43 52 1.0 3.0 0.00 0.00 0.00 47 1018.1
20171123172608 43 15 1.0 2.0 0.00 0.00 0.00 47 1018.2
20171123172107 43 275 1.0 3.0 0.00 0.00 0.00 47 1018.3
20171123171609 43 23 2.0 3.0 0.00 0.00 0.00 47 1018.3
20171123171107 43 96 1.0 3.0 0.00 0.00 0.00 49 1018.4
20171123170609 43 199 1.0 3.0 0.00 0.00 0.00 49 1018.4
20171123170110 42 10 1.0 3.0 0.00 0.00 0.00 49 1018.3
20171123165612 42 234 2.0 5.0 0.00 0.00 0.00 48 1018.3
20171123165107 42 236 2.0 3.0 0.00 0.00 0.00 50 1018.4
20171123164609 42 59 2.0 5.0 0.00 0.00 0.00 49 1018.4
20171123164106 42 20 1.0 3.0 0.00 0.00 0.00 49 1018.4
20171123163612 42 317 1.0 2.0 0.00 0.00 0.00 49 1018.4
20171123163107 41 231 1.0 3.0 0.00 0.00 0.00 50 1018.6
20171123162607 41 351 2.0 3.0 0.00 0.00 0.00 50 1018.6
20171123162106 41 210 1.0 6.0 0.00 0.00 0.00 50 1018.8
20171123161608 41 232 1.0 3.0 0.00 0.00 0.00 51 1018.9
20171123161111 41 214 3.0 6.0 0.00 0.00 0.00 51 1019.0
20171123160613 41 345 1.0 3.0 0.00 0.00 0.00 51 1019.1
20171123160107 41 175 2.0 5.0 0.00 0.00 0.00 52 1019.1
20171123155609 40 226 2.0 3.0 0.00 0.00 0.00 52 1019.2
20171123155134 40 226 1.0 3.0 0.00 0.00 0.00 53 1019.3
20171123154607 40 222 1.0 3.0 0.00 0.00 0.00 53 1019.5
20171123154107 39 77 1.0 3.0 0.00 0.00 0.00 54 1019.5
20171123153618 39 21 2.0 3.0 0.00 0.00 0.00 54 1019.5
20171123153107 39 354 1.0 5.0 0.00 0.00 0.00 54 1019.6
20171123152606 39 217 2.0 3.0 0.00 0.00 0.00 54 1019.6
20171123152108 39 61 1.0 3.0 0.00 0.00 0.00 54 1019.7
20171123151607 39 247 2.0 3.0 0.00 0.00 0.00 54 1019.7
20171123151106 39 221 1.0 6.0 0.00 0.00 0.00 55 1019.8
20171123150610 39 42 1.0 3.0 0.00 0.00 0.00 55 1019.8
20171123150110 39 231 2.0 5.0 0.00 0.00 0.00 55 1019.9
20171123145607 39 203 1.0 3.0 0.00 0.00 0.00 55 1020.0
20171123145106 39 40 1.0 3.0 0.00 0.00 0.00 55 1020.0
20171123144613 39 131 1.0 3.0 0.00 0.00 0.00 56 1020.1
20171123144107 38 0 0.0 2.0 0.00 0.00 0.00 57 1020.0
20171123143607 38 317 1.0 3.0 0.00 0.00 0.00 57 1020.0
20171123143110 38 273 1.0 3.0 0.00 0.00 0.00 57 1020.1
20171123142618 38 331 1.0 3.0 0.00 0.00 0.00 57 1020.0
20171123142107 38 100 1.0 3.0 0.00 0.00 0.00 57 1020.1
20171123141610 37 277 2.0 3.0 0.00 0.00 0.00 58 1020.0
20171123141108 37 149 1.0 3.0 0.00 0.01 0.00 59 1020.1
20171123140607 37 250 1.0 3.0 0.00 0.02 0.00 59 1020.0
20171123140106 36 254 1.0 3.0 0.00 0.04 0.00 60 1020.1
20171123135609 36 67 1.0 3.0 0.00 0.04 0.00 60 1020.1
20171123135111 36 112 1.0 3.0 0.00 0.05 0.00 60 1020.2
20171123134607 36 222 2.0 3.0 0.00 0.05 0.00 61 1020.2
20171123134107 35 226 1.0 3.0 0.00 0.06 0.00 61 1020.3
20171123133607 35 235 1.0 3.0 0.00 0.06 0.00 61 1020.3
20171123133125 35 212 1.0 3.0 0.00 0.06 0.00 61 1020.4
20171123132606 35 237 3.0 6.0 0.00 0.07 0.00 62 1020.5
20171123132106 35 297 2.0 5.0 0.00 0.08 0.00 63 1020.4
20171123131628 34 26 2.0 6.0 0.00 0.08 0.00 63 1020.3
20171123131114 34 307 1.0 5.0 0.00 0.09 0.00 64 1020.2
20171123130608 34 14 2.0 5.0 0.00 0.09 0.00 65 1020.2
20171123130109 34 285 0.0 6.0 0.00 0.10 0.00 65 1020.1
20171123125617 33 231 2.0 3.0 0.00 0.10 0.00 65 1020.0
20171123125107 33 214 1.0 3.0 0.00 0.12 0.00 65 1020.0
20171123124610 33 255 2.0 5.0 0.00 0.15 0.00 65 1019.9
20171123124108 33 109 1.0 5.0 0.00 0.15 0.00 66 1019.9
20171123123607 32 165 2.0 3.0 0.00 0.16 0.00 66 1020.0
20171123123107 32 236 1.0 5.0 0.00 0.16 0.00 66 1020.0
20171123122606 32 212 1.0 3.0 0.00 0.16 0.00 66 1019.9
20171123122111 32 216 1.0 3.0 0.00 0.16 0.00 66 1019.9
20171123121608 32 210 1.0 3.0 0.00 0.16 0.00 66 1019.9
20171123121108 32 248 1.0 3.0 0.00 0.17 0.00 66 1019.8
20171123120609 32 349 1.0 3.0 0.00 0.17 0.00 66 1019.8
20171123120124 32 23 2.0 3.0 0.00 0.17 0.00 66 1019.8
20171123115606 32 327 0.0 2.0 0.00 0.18 0.00 66 1020.0
20171123115106 32 33 0.0 3.0 0.00 0.18 0.00 66 1019.9
20171123114621 32 41 1.0 3.0 0.00 0.20 0.00 66 1019.8
20171123114114 32 37 2.0 6.0 0.00 0.22 0.00 66 1019.6
20171123113606 32 237 1.0 2.0 0.00 0.22 0.00 66 1019.3
20171123113107 32 234 1.0 3.0 0.00 0.22 0.00 66 1019.1
20171123112607 32 226 1.0 5.0 0.00 0.22 0.00 66 1019.0
20171123112123 32 184 1.0 3.0 0.00 0.22 0.00 66 1019.0
20171123111608 32 168 1.0 3.0 0.00 0.22 0.00 66 1019.1
20171123111106 32 157 1.0 3.0 0.00 0.22 0.00 65 1019.1
20171123110615 32 309 2.0 3.0 0.00 0.22 0.00 66 1019.1
20171123110121 32 70 2.0 3.0 0.00 0.22 0.00 66 1019.2
20171123105609 32 290 1.0 3.0 0.00 0.22 0.00 66 1019.2
20171123105115 32 173 2.0 5.0 0.00 0.22 0.00 66 1019.2
20171123104607 32 230 1.0 3.0 0.00 0.22 0.00 66 1019.3
20171123104106 32 216 2.0 3.0 0.00 0.22 0.00 66 1019.3
20171123103606 33 38 2.0 3.0 0.00 0.22 0.00 66 1019.2
20171123103132 33 223 2.0 5.0 0.00 0.22 0.00 66 1019.0
20171123102610 33 208 1.0 3.0 0.00 0.22 0.00 65 1019.0
20171123102107 33 102 1.0 5.0 0.00 0.22 0.00 66 1019.1
20171123101609 33 31 1.0 5.0 0.00 0.22 0.00 65 1019.1
20171123101111 33 179 1.0 2.0 0.00 0.22 0.00 66 1018.9
20171123100606 33 146 1.0 3.0 0.00 0.22 0.00 65 1018.8
20171123100107 33 188 1.0 5.0 0.00 0.22 0.00 65 1018.8
20171123095606 33 358 1.0 3.0 0.00 0.22 0.00 65 1018.8
20171123095106 33 295 1.0 3.0 0.00 0.22 0.00 65 1018.7
20171123094606 33 228 1.0 3.0 0.00 0.22 0.00 65 1018.7
20171123094106 33 213 1.0 3.0 0.00 0.22 0.00 65 1018.7
20171123093606 33 221 2.0 3.0 0.00 0.22 0.00 65 1018.8
20171123093106 33 169 1.0 5.0 0.00 0.22 0.00 64 1018.7
20171123092606 33 254 2.0 5.0 0.00 0.22 0.00 64 1018.7
20171123091106 33 92 1.0 3.0 0.00 0.22 0.00 64 1018.8
20171123090607 33 228 2.0 6.0 0.00 0.22 0.00 64 1018.9
20171123090110 33 206 2.0 7.0 0.00 0.22 0.00 64 1018.8
20171123085607 33 215 2.0 5.0 0.00 0.22 0.00 64 1018.7
20171123085106 33 254 2.0 8.0 0.00 0.22 0.00 64 1018.7
20171123084606 33 331 1.0 3.0 0.00 0.22 0.00 64 1018.9
20171123084114 33 243 1.0 5.0 0.00 0.22 0.00 63 1019.0
20171123083606 33 123 2.0 8.0 0.00 0.22 0.00 63 1018.9
20171123083115 33 177 2.0 5.0 0.00 0.22 0.00 63 1018.9
20171123082607 33 267 2.0 5.0 0.00 0.22 0.00 63 1019.0
20171123082108 33 211 2.0 5.0 0.00 0.22 0.00 63 1019.0
20171123081607 33 317 3.0 6.0 0.00 0.22 0.00 63 1019.1
20171123081106 34 339 3.0 6.0 0.00 0.22 0.00 63 1019.1
20171123080609 34 247 1.0 6.0 0.00 0.22 0.00 63 1018.9
20171123080113 34 271 2.0 5.0 0.00 0.22 0.00 63 1019.0
20171123075606 34 238 1.0 3.0 0.00 0.22 0.00 63 1019.3
20171123075117 34 198 2.0 5.0 0.00 0.22 0.00 63 1019.4
20171123074607 34 37 2.0 6.0 0.00 0.22 0.00 63 1019.6
20171123074107 34 204 2.0 5.0 0.00 0.22 0.00 63 1019.5
20171123073607 34 255 2.0 3.0 0.00 0.22 0.00 63 1019.5
20171123073107 34 279 2.0 7.0 0.00 0.22 0.00 63 1019.4
20171123072607 34 238 2.0 5.0 0.00 0.22 0.00 63 1019.5
20171123072107 34 88 2.0 5.0 0.00 0.22 0.00 63 1019.5
20171123071614 34 354 2.0 7.0 0.00 0.22 0.00 63 1019.4
20171123071106 34 275 1.0 3.0 0.00 0.22 0.00 63 1019.4
20171123070606 34 9 2.0 6.0 0.00 0.22 0.00 63 1019.4
20171123070145 34 65 1.0 3.0 0.00 0.22 0.00 63 1019.4
20171123065612 34 85 2.0 3.0 0.00 0.22 0.00 63 1019.3
20171123065106 34 356 2.0 3.0 0.00 0.22 0.00 62 1019.2
20171123064606 34 233 1.0 3.0 0.00 0.22 0.00 63 1019.2
20171123064201 34 234 2.0 5.0 0.00 0.22 0.00 62 1019.1
20171123063633 34 168 2.0 5.0 0.00 0.22 0.00 63 1019.2
20171123063122 34 287 1.0 3.0 0.00 0.22 0.00 63 1019.0
20171123062607 34 179 0.0 2.0 0.00 0.22 0.00 62 1018.9
20171123062107 34 244 1.0 5.0 0.00 0.22 0.00 62 1018.7
20171123061607 34 58 1.0 6.0 0.00 0.22 0.00 61 1018.8
20171123061138 34 291 2.0 6.0 0.00 0.22 0.00 62 1018.8
20171123060606 34 225 3.0 5.0 0.00 0.22 0.00 61 1018.7
20171123060111 34 338 2.0 5.0 0.00 0.22 0.00 61 1018.8
20171123055106 35 212 2.0 3.0 0.00 0.22 0.00 61 1018.9
20171123054606 35 18 1.0 5.0 0.00 0.22 0.00 62 1019.0
20171123054106 35 97 2.0 5.0 0.00 0.22 0.00 62 1019.1
20171123053607 35 163 1.0 3.0 0.00 0.22 0.00 61 1019.0
20171123053107 35 335 1.0 3.0 0.00 0.22 0.00 61 1018.9
20171123052606 35 74 2.0 5.0 0.00 0.22 0.00 61 1018.8
20171123052110 35 308 3.0 9.0 0.00 0.22 0.00 61 1018.9
20171123051606 35 227 3.0 7.0 0.00 0.22 0.00 61 1019.0
20171123051108 35 217 2.0 6.0 0.00 0.22 0.00 61 1019.0
20171123050608 35 179 2.0 6.0 0.00 0.22 0.00 62 1019.1
20171123050106 35 15 1.0 3.0 0.00 0.22 0.00 61 1019.1
20171123045606 35 8 3.0 9.0 0.00 0.22 0.22 61 1019.2
20171123045107 35 262 1.0 5.0 0.00 0.22 0.22 61 1019.1
20171123044609 36 229 2.0 6.0 0.00 0.22 0.22 61 1019.0
20171123044112 36 238 2.0 12.0 0.00 0.22 0.22 61 1018.9
20171123043606 36 333 2.0 8.0 0.00 0.22 0.22 61 1018.9
20171123043106 36 252 4.0 10.0 0.00 0.22 0.22 61 1018.9
20171123042716 36 298 2.0 6.0 0.00 0.22 0.22 61 1018.8
20171123042108 36 146 2.0 5.0 0.00 0.22 0.22 61 1018.8
20171123041606 36 222 3.0 7.0 0.00 0.22 0.22 61 1018.8
20171123041110 36 353 1.0 5.0 0.00 0.22 0.22 61 1018.8
20171123040606 36 302 2.0 8.0 0.00 0.22 0.22 61 1018.7
20171123040106 37 295 3.0 7.0 0.00 0.22 0.22 62 1018.7
20171123035606 37 303 2.0 6.0 0.00 0.22 0.22 62 1018.8
20171123035120 37 340 2.0 3.0 0.00 0.22 0.22 62 1018.8
20171123034606 37 262 3.0 6.0 0.00 0.22 0.22 61 1018.8
20171123034106 37 285 2.0 10.0 0.00 0.22 0.22 61 1018.7
20171123033606 37 298 2.0 8.0 0.00 0.22 0.22 61 1018.6
20171123033113 37 193 2.0 6.0 0.00 0.22 0.22 62 1018.5
20171123032606 37 221 2.0 6.0 0.00 0.22 0.22 62 1018.3
20171123032106 37 118 1.0 3.0 0.00 0.22 0.22 61 1018.3
20171123031606 37 110 2.0 7.0 0.00 0.22 0.22 61 1018.4
20171123031111 37 193 1.0 5.0 0.00 0.22 0.22 61 1018.5
20171123030606 37 270 2.0 6.0 0.00 0.22 0.22 61 1018.3
20171123030107 37 197 2.0 7.0 0.00 0.22 0.22 61 1018.2
20171123025607 37 216 2.0 6.0 0.00 0.22 0.22 62 1018.3
20171123025112 37 278 2.0 5.0 0.00 0.22 0.22 62 1018.4
20171123024609 38 206 1.0 3.0 0.00 0.22 0.22 62 1018.4
20171123024106 38 260 2.0 6.0 0.00 0.22 0.22 61 1018.1
20171123023616 38 162 3.0 7.0 0.00 0.22 0.22 61 1018.1
20171123023106 38 40 3.0 12.0 0.00 0.22 0.22 61 1018.1
20171123022606 38 245 2.0 6.0 0.00 0.22 0.22 61 1018.1
20171123022106 38 283 3.0 6.0 0.00 0.22 0.22 62 1018.1
20171123021608 38 52 3.0 10.0 0.00 0.22 0.22 62 1018.0
20171123021106 38 312 1.0 5.0 0.00 0.22 0.22 61 1018.0
20171123020609 38 6 2.0 7.0 0.00 0.22 0.22 62 1017.9
20171123020123 39 275 3.0 9.0 0.00 0.22 0.22 62 1017.8
20171123015610 39 273 2.0 5.0 0.00 0.22 0.22 62 1017.8
20171123015106 39 232 2.0 5.0 0.00 0.22 0.22 62 1017.8
20171123014606 39 203 2.0 7.0 0.00 0.22 0.22 61 1017.6
20171123014107 39 206 3.0 9.0 0.00 0.22 0.22 62 1017.5
20171123013608 39 224 2.0 5.0 0.00 0.22 0.22 61 1017.3
20171123013111 39 217 5.0 10.0 0.00 0.22 0.22 61 1017.3
20171123012609 39 128 2.0 14.0 0.00 0.22 0.22 61 1017.1
20171123012106 39 219 2.0 6.0 0.00 0.22 0.22 62 1017.1
20171123011607 39 45 2.0 5.0 0.00 0.22 0.22 62 1017.2
20171123011107 40 121 2.0 6.0 0.00 0.22 0.22 62 1017.2
20171123010606 40 215 2.0 5.0 0.00 0.22 0.22 62 1017.1
20171123010109 40 52 2.0 8.0 0.00 0.22 0.22 62 1017.1
20171123005607 40 138 2.0 5.0 0.00 0.22 0.22 62 1017.2
20171123005106 40 289 2.0 6.0 0.00 0.22 0.22 62 1017.3
20171123004610 40 316 2.0 10.0 0.00 0.22 0.22 61 1017.2
20171123004108 40 292 3.0 6.0 0.00 0.22 0.22 61 1017.1
20171123003606 41 235 2.0 6.0 0.00 0.22 0.22 61 1017.1
20171123003106 41 221 2.0 6.0 0.00 0.22 0.22 61 1017.0
20171123002607 41 180 2.0 7.0 0.00 0.22 0.22 61 1017.0
20171123002112 41 99 3.0 7.0 0.00 0.22 0.22 61 1016.9
20171123001606 41 217 3.0 10.0 0.00 0.22 0.22 61 1016.9
20171123001106 41 48 2.0 9.0 0.00 0.22 0.22 61 1016.7
20171123000610 42 293 3.0 8.0 0.00 0.22 0.22 61 1016.7
20171123000136 42 252 3.0 8.0 0.00 0.22 0.22 61 1016.7
20171122235607 42 177 3.0 7.0 0.00 0.22 0.22 61 1016.6
20171122235106 42 20 3.0 8.0 0.00 0.22 0.22 62 1016.6
20171122234616 42 304 4.0 12.0 0.00 0.22 0.22 62 1016.4